Zurück zum Katalog

SL-8 R/B

AktivPO
NORAD 28421·ROCKET BODY·🇷🇺 Russia

Gestartet Sep 23, 2004 von Plesetsk Cosmodrome

Loading…

Nächste Überflüge (nächste 24 Stunden)

TLE

AktuellSource: Space-Track

Epoche: Sep 14, 2026, 08:57 UTC

1 28421U 04037C   26257.37319396 -.00000081  00000-0 -64568-3 0  9997
2 28421  82.4781 280.1166 0022254 115.9878 255.4610 12.44406877998032

Verfolge SL-8 R/B in Echtzeit mit AllMySat

Download on the App Store